Location: Audinghen
(50.8518°N, 1.6129°E)
Time: 05:38:41
(UTC+00:00)

Cosmos 836 Rocket - Pass Details

Date: 07 August 2020
Orbit: 758 x 777 km, 74.1° (Epoch: 19 September)

Event Time Altitude Azimuth Distance (km) Brightness Sun altitude
Rises 00:03:02 0° 334° (NNW) 3,233 8.8 -22.8°
Reaches altitude 10° 00:05:25 10° 333° (NNW) 2,301 7.8 -22.8°
Maximum altitude 00:10:37 73° 249° (WSW) 796 4.4 -22.8°
Enters shadow 00:11:31 59° 189° (S) 879 4.4 -22.8°
